Hourly Weather Roundup
Issued by NWS Central Illinois

Home | Current Version | Previous Version | Text Only | Print | Product List | Glossary On
Versions: 1 2 3 4 5 6 7 8 9 10 11 12 13 14 15 16 17 18 19 20 21 22 23 24 25 26 27 28 29 30 31 32 33 34 35 36 37 38 39 40 41 42 43 44 45 46 47 48 49 50
000
NZUS43 KILX 221910
HWRILX

Area Weather Roundup
National Weather Service Lincoln IL
200 PM CDT MON MAY 22 2017

NOTE:  "FAIR" indicates few or no clouds below 12,000 feet, with
       no sigificant weather and/or obstructions to visibility.


CITY           SKY/WX    TMP DP  RH WIND       PRES   REMARKS
Bloomington    SUNNY     73  43  33 SW17G25   30.01F
Champaign      SUNNY     72  47  40 S17       30.03F
Danville       SUNNY     71  48  44 SW14      30.01F
Decatur        SUNNY     72  48  42 SW17G25   30.03F
Effingham      SUNNY     71  49  44 SE9       30.08F
Flora          SUNNY     72  46  38 S8        30.07F
Galesburg      DRIZZLE   63  55  74 SW15G24   29.98R
Jacksonville   MOSUNNY   72  49  44 SW12G18   30.01F
Lacon          SUNNY     73  47  40 SW14G21   29.95F
Lawrenceville  MOSUNNY   72  44  36 VRB6      30.07F
Litchfield     SUNNY     69  49  48 S14       30.05F
$$


CITY           SKY/WX    TMP DP  RH WIND       PRES   REMARKS
Lincoln        SUNNY     74  50  43 S9G17     30.01F
Macomb         LGT RAIN  66  54  64 SW13      30.01S
Mattoon        SUNNY     69  49  48 S10       30.05F
Mt Carmel AP   CLOUDY    72  43  34 SE8       30.07F
Olney-Noble AP SUNNY     71  43  36 SE7       30.07F
Paris AP       SUNNY     69  50  49 SW9G23    30.06F
Peoria         MOSUNNY   73  47  39 SW16      29.97F
Pontiac        SUNNY     75  45  34 SW15G23   29.98F
Rantoul        SUNNY     74  48  40 S12G26    30.02F
Robinson       SUNNY     70  45  40 S8        30.08F
Springfield    SUNNY     74  49  41 S16       30.02F
Taylorville    SUNNY     70  48  45 S16       30.04F
$$

...REGIONAL REPORTS...


CITY           SKY/WX    TMP DP  RH WIND       PRES   REMARKS
Chicago O`Hare MOSUNNY   71  46  40 SW15G24   29.95F
Kankakee       MOSUNNY   75  47  37 SW15G23   29.99F
Moline         LGT RAIN  67  52  58 SW20G29   29.93S
Mount Sterling CLOUDY    70  51  51 SW12G18   29.99F
Mount Vernon     N/A     74  48  39 VRB5      30.06F
Pittsfield     MOSUNNY   72  52  49 S12       30.02F
Quincy         CLOUDY    69  53  56 SW14      29.99F
Rockford       CLOUDY    69  49  48 W7G18     29.94F
$$


CITY           SKY/WX    TMP DP  RH WIND       PRES   REMARKS
Burlington     CLOUDY    63  58  83 SW10      29.97F
Cedar Rapids   CLOUDY    68  56  65 SW15G23   29.87F
Des Moines     CLOUDY    72  53  51 SW16      29.89F
Kirksville       N/A     61  58  90 SW8       30.01F
Ottumwa        CLOUDY    65  56  72 SW25G32   29.94S
St Louis       PTSUNNY   76  43  30 SE14      30.04F
$$


CITY           SKY/WX    TMP DP  RH WIND       PRES   REMARKS
Terre Haute    SUNNY     71  46  40 S9        30.06F
Evansville     MOSUNNY   73  45  36 E12       30.08F
Indianapolis   PTSUNNY   68  44  42 SW8       30.07F
Lafayette      SUNNY     69  49  48 SW8       30.03F
Madison        LGT RAIN  57  50  77 S9        29.90F
Milwaukee      LGT RAIN  65  48  54 W17G23    29.93F
$$






USA.gov is the U.S. government's official web portal to all federal, state and local government web resources and services.